Marathon, Florida Weather Center

Moon Phase Calendar



Online Cameras

 


      

Current Conditions in Marathon
4/21/2024 7:16:06 AM

77°F
Feels Like 78
Clear
Humidity
78%
Pressure
29.97"
Wind
9.2 mph (SE)
Dew Point
69°F
UV Index
0/10 (Low)
Visibility
6 mi

Hourly Forecast

Date & Time Sun, Apr 21
7:00 AM
Sun, Apr 21
8:00 AM
Sun, Apr 21
9:00 AM
Sun, Apr 21
10:00 AM
Sun, Apr 21
11:00 AM
Sun, Apr 21
12:00 PM
Sun, Apr 21
1:00 PM
Sun, Apr 21
2:00 PM
Sun, Apr 21
3:00 PM
Sun, Apr 21
4:00 PM
Sun, Apr 21
5:00 PM
Sun, Apr 21
6:00 PM
Sun, Apr 21
7:00 PM
Sun, Apr 21
8:00 PM
Sun, Apr 21
9:00 PM
Sun, Apr 21
10:00 PM
Sun, Apr 21
11:00 PM
Mon, Apr 22
12:00 AM
Mon, Apr 22
1:00 AM
Mon, Apr 22
2:00 AM
Mon, Apr 22
3:00 AM
Mon, Apr 22
4:00 AM
Mon, Apr 22
5:00 AM
Mon, Apr 22
6:00 AM
Mon, Apr 22
7:00 AM
Mon, Apr 22
8:00 AM
Mon, Apr 22
9:00 AM
Mon, Apr 22
10:00 AM
Mon, Apr 22
11:00 AM
Mon, Apr 22
12:00 PM
Mon, Apr 22
1:00 PM
Mon, Apr 22
2:00 PM
Mon, Apr 22
3:00 PM
Mon, Apr 22
4:00 PM
Mon, Apr 22
5:00 PM
Mon, Apr 22
6:00 PM
Mon, Apr 22
7:00 PM
Mon, Apr 22
8:00 PM
Mon, Apr 22
9:00 PM
Mon, Apr 22
10:00 PM
Mon, Apr 22
11:00 PM
Tue, Apr 23
12:00 AM
Tue, Apr 23
1:00 AM
Tue, Apr 23
2:00 AM
Tue, Apr 23
3:00 AM
Tue, Apr 23
4:00 AM
Tue, Apr 23
5:00 AM
Tue, Apr 23
6:00 AM
Condition
Clear

Clear

Clear

Clear

Clear

Clear

Clear

Clear

Clear

Clear

Clear

Clear

Clear

Clear

Clear

Clear

Clear

Clear

Clear

Clear

Clear

Clear

Clear

Clear

Clear

Clear

Clear

Clear

Clear

Clear

Clear

Clear

Clear

Clear

Clear

Clear

Clear

Clear

Clear

Clear

Clear

Clear

Clear

Clear

Clear

Clear

Clear

Clouds
Temperature 77°F77°F77°F77°F77°F78°F78°F78°F78°F78°F78°F78°F78°F77°F77°F77°F77°F77°F77°F77°F77°F77°F77°F77°F77°F77°F77°F77°F77°F77°F78°F78°F78°F78°F77°F77°F76°F75°F75°F75°F75°F75°F75°F74°F74°F75°F76°F76°F
Feels Like 78°F78°F78°F78°F78°F78°F78°F78°F78°F78°F78°F78°F78°F78°F78°F78°F78°F78°F78°F78°F78°F78°F78°F77°F77°F77°F77°F77°F78°F78°F78°F78°F79°F79°F78°F78°F77°F76°F76°F76°F76°F76°F76°F75°F75°F76°F77°F77°F
Cloudiness 0%0%0%0%0%0%0%0%0%0%1%1%1%1%0%2%1%1%1%1%1%1%1%1%1%0%0%0%0%0%0%0%0%0%0%1%1%2%6%3%2%1%1%1%0%0%8%20%
Visibility 6 mi6 mi6 mi6 mi6 mi6 mi6 mi6 mi6 mi6 mi6 mi6 mi6 mi6 mi6 mi6 mi6 mi6 mi6 mi6 mi6 mi6 mi6 mi6 mi6 mi6 mi6 mi6 mi6 mi6 mi6 mi6 mi6 mi6 mi6 mi6 mi6 mi6 mi6 mi6 mi6 mi6 mi6 mi6 mi6 mi6 mi6 mi6 mi
Precipitation 0%0%0%0%0%0%0%0%0%0%0%0%0%0%0%0%0%0%0%0%0%0%0%0%0%0%0%0%0%0%0%0%0%0%0%0%0%0%0%0%0%0%0%0%0%0%0%0%
Humidity 78%76%74%72%70%69%70%69%68%68%68%67%67%67%68%69%70%71%72%72%70%69%68%68%68%68%68%68%68%68%68%68%69%73%78%81%81%82%81%80%78%76%73%73%78%81%80%79%
Dew Point 69°F69°F68°F67°F67°F67°F67°F67°F67°F66°F66°F66°F66°F66°F66°F66°F66°F67°F67°F67°F66°F66°F66°F66°F66°F65°F66°F66°F66°F66°F66°F67°F67°F68°F70°F71°F70°F70°F69°F68°F68°F67°F66°F65°F66°F68°F69°F69°F
Pressure 29.97"29.97"29.97"30"30.03"30.03"30.03"30.03"30"29.97"29.94"29.97"29.97"29.97"30"30"30"30"29.97"29.94"29.94"29.94"29.94"29.94"29.97"29.97"30"30"30"30.03"30"30"29.97"29.97"29.97"29.97"30"30"30.03"30.03"30.03"30.03"30.03"30.03"30"30"30"30"
Wind Speed 14.8 mph16.3 mph15 mph13.8 mph15.2 mph15.3 mph15.1 mph11.2 mph9.2 mph7.7 mph6.8 mph3.6 mph3 mph2.1 mph3.2 mph4.5 mph4.4 mph7.6 mph10.1 mph10.8 mph6.7 mph5.2 mph2.8 mph2.4 mph2.4 mph1.4 mph1.5 mph1.6 mph3 mph3.9 mph5.6 mph7.6 mph9 mph11.1 mph13.4 mph16 mph18.9 mph20.4 mph21 mph20.5 mph20.3 mph21.2 mph18.8 mph14.7 mph15 mph16.9 mph19.7 mph19.3 mph
Wind
Direction
136°
SE
139°
SE
145°
SE
147°
SSE
147°
SSE
152°
SSE
151°
SSE
154°
SSE
155°
SSE
144°
SE
142°
SE
134°
SE
114°
ESE
72°
ENE
49°
NE
41°
NE
87°
E
133°
SE
143°
SE
147°
SSE
157°
SSE
157°
SSE
180°
S
163°
SSE
192°
SSW
238°
WSW
265°
W
246°
WSW
287°
WNW
273°
W
283°
WNW
289°
WNW
299°
WNW
306°
NW
311°
NW
321°
NW
321°
NW
321°
NW
322°
NW
323°
NW
327°
NNW
338°
NNW
349°
N

N
22°
NNE
39°
NE
48°
NE
46°
NE

Daily Forecast

Date High Low Precip. Humidity
Today
Apr 21

Clear
78 °F
77 °F
0%
70%
Monday
Apr 22

Clear
78 °F
75 °F
0%
68%
Tuesday
Apr 23

Rain
77 °F
74 °F
55%
73%
Wednesday
Apr 24

Rain
76 °F
75 °F
20%
70%
Thursday
Apr 25

Clear
76 °F
75 °F
0%
64%
Friday
Apr 26

Clouds
77 °F
75 °F
0%
65%
Saturday
Apr 27

Rain
77 °F
76 °F
26%
69%
Sunday
Apr 28

Rain
77 °F
75 °F
20%
65%
Monday
Apr 29

Rain
77 °F
76 °F
93%
67%
Tuesday
Apr 30

Clear
77 °F
76 °F
0%
69%
Wednesday
May 1

Clouds
78 °F
77 °F
0%
72%
Thursday
May 2

Clouds
78 °F
77 °F
0%
67%
Friday
May 3

Clear
78 °F
77 °F
0%
68%
Saturday
May 4

Rain
78 °F
77 °F
20%
68%
Sunday
May 5

Clouds
78 °F
77 °F
5%
72%
Monday
May 6

Clouds
78 °F
76 °F
0%
67%

Temperature 8-14 Day Outlook



Precipitation 8-14 Day Outlook




Quick Links
Marathon, Florida News
Marathon, Florida Photos
Marathon, Florida Videos




About Us
Contact Us
Site Map
Search Site
Advertise With Us
   
Marathon.CoastalTown.com
THE MARATHON, FLORIDA WEBSITE

Copyright 2024, Coastal Town
Privacy    |    Legal